Preview of NWS' New Version of Forecast
This preview is not operational and should not be used for support decisions.

Regional Weather Roundup (RWR)

Issued by Fort Worth/Dallas, TX (FWD)

                            
000
ASUS44 KFWD 152115
RWRFWD
NORTH TEXAS HOURLY WEATHER ROUNDUP
NATIONAL WEATHER SERVICE FORT WORTH TX
400 PM CDT MON OCT 15 2018

NOTE: "FAIR" INDICATES FEW OR NO CLOUDS BELOW 12,000 FEET WITH NO
SIGNIFICANT WEATHER AND/OR OBSTRUCTIONS TO VISIBILITY.

TXZ118-119-152200-
DALLAS/FORT WORTH METROPLEX
  
CITY           SKY/WX    TMP DP  RH WIND       PRES   REMARKS
DFW AIRPORT    LGT RAIN  44  41  89 N16       30.26S WCI  37          
DALLAS LOVE    LGT RAIN  45  42  89 N16G24    30.27F FOG     WCI  38  
FTW MEACHAM    HVY RAIN  42  40  92 NW10G24   30.28R WCI  36          
DAL-EXECUTIVE  HVY RAIN  43  41  93 N17G25    30.25S FOG     WCI  35  
FTW-ALLIANCE   CLOUDY    44  40  85 N16       30.29R WCI  37          
FTW-NAS-JRB    RAIN      44  41  89 N14       30.30S FOG     WCI  37  
FTW-SPINKS     RAIN      43  41  93 N16G23    30.28S WCI  35          
ARLINGTON      RAIN      44  43  96 NW18      30.27S WCI  36          
GRAND PRAIRIE  RAIN      43  43 100 NW9G21    30.29R WCI  37          
ADDISON        LGT RAIN  43  41  93 N15G23    30.26F WCI  35          
MESQUITE       RAIN      43  43 100 N17G28    30.26R WCI  35          
LANCASTER      RAIN      44  42  93 N14G20    30.27S WCI  37          
$$

TXZ091>094-102>105-117-120-121-131>134-152200-
NORTH CENTRAL TEXAS
  
CITY           SKY/WX    TMP DP  RH WIND       PRES   REMARKS
SHRMAN/DENISON CLOUDY    44  40  86 N10       30.30S WCI  38          
GAINESVILLE    CLOUDY    43  38  83 N13       30.32S WCI  37          
BOWIE          CLOUDY    46  38  73 N8        30.30F                  
BRIDGEPORT     CLOUDY    45  38  77 N10       30.32S WCI  40          
DECATUR        CLOUDY    44  39  83 N8        30.30S WCI  39          
DENTON         CLOUDY    44  39  82 N14       30.30S WCI  37          
MCKINNEY       LGT RAIN  44  42  93 N14       30.28R WCI  37          
BONHAM         LGT RAIN  41  40  93 N9G20     30.29R WCI  36          
GREENVILLE     LGT RAIN  46  43  87 N17G32    30.23F WCI  39          
ROCKWALL       RAIN      43  43 100 N12G23    30.26S WCI  37          
TERRELL        CLOUDY    45  41  86 N15G21    30.26R WCI  38          
WAXAHACHIE     RAIN      43  43 100 N18       30.25S WCI  34          
GRANBURY       RAIN      43  41  91 NW13      30.30R WCI  36          
$$

TXZ083>090-098>101-113>116-127>130-139>142-154-155-152200-
WESTERN NORTH TEXAS
  
CITY           SKY/WX    TMP DP  RH WIND       PRES   REMARKS
WICHITA FALLS  FAIR      52  31  44 NE18      30.34S                  
WF-KICKAPOO    FAIR      51  32  48 NE17G25   30.37R                  
VERNON         FAIR      50  33  50 N15G25    30.37R                  
ABILENE        CLOUDY   N/A N/A N/A N18G28    30.29F                  
ABILENE-DYESS  CLOUDY    45  29  55 N20       30.29F WCI  37          
GRAHAM         CLOUDY    45  36  72 N15G22    30.30F WCI  38          
CISCO          CLOUDY    41  36  81 N16       30.28F WCI  33          
EASTLAND       CLOUDY    40  35  80 N15       30.28F WCI  32          
RANGER         CLOUDY    40  37  92 N14G22    30.28F WCI  32          
MINERAL WELLS  CLOUDY    44  38  79 NW18      30.31R WCI  36          
STEPHENVILLE   CLOUDY    40  38  92 CALM      30.28S                  
COMANCHE       LGT RAIN  40  40 100 MISG      30.25F                  
COLEMAN        CLOUDY    42  37  80 N14G29    30.25F WCI  35          
BRADY          CLOUDY    39  37  93 N18       30.24R WCI  30          
$$

TXZ143>147-156>162-174-175-152200-
CENTRAL TEXAS
  
CITY           SKY/WX    TMP DP  RH WIND       PRES   REMARKS
WACO           RAIN      44  42  93 N14G25    30.23R WCI  37          
WACO-TSTC      RAIN      45  43  93 N17G32    30.21F WCI  37          
WACO-MCGREGOR  LGT RAIN  43  42  97 N16G28    30.25R WCI  35          
HILLSBORO      LGT RAIN  44  44 100 N21G28    30.22F WCI  35          
CORSICANA        N/A    N/A N/A N/A MISG      30.20F                  
MEXIA          RAIN      44  43  97 N15G23    30.18F WCI  37          
HEARNE         LGT RAIN  46  45  96 NW16G25   30.16S WCI  39          
CAMERON        LGT RAIN  46  44  96 N17G25    30.20R WCI  38          
TEMPLE         MIX PCPN N/A N/A N/A N21G26    30.22R VSB 1            
KILLEEN        HVY RAIN  41  39  93 N20G29    30.18F FOG     WCI  32  
KILLEEN-SKYLRK RAIN      43  41  93 NW10      30.25R WCI  37          
FORT HOOD      LGT RAIN  43  41  93 N21       30.19S VSB 3/4 WCI  34  
GATESVILLE     MIX PCPN  41  39  93 N14G21    30.25F WCI  33          
HAMILTON       MIX PCPN  40  40 100 N21G28    30.21F VSB 1   WCI  30  
$$

TXZ095>097-106>112-122>126-135>138-148>153-164>167-152200-
EAST TEXAS
  
CITY           SKY/WX    TMP DP  RH WIND       PRES   REMARKS
PARIS          LGT RAIN  45  44  97 N14       30.26R WCI  38          
SULPHUR SPRNGS DRIZZLE   46  46  97 N20G25    30.24F WCI  39          
MOUNT PLEASANT CLOUDY    47  45  91 N15       30.23S                  
MINEOLA        LGT RAIN  45  43  93 N9G16     30.20S WCI  40          
TYLER          RAIN      47  47 100 N12G25    30.15F                  
LONGVIEW       LGT RAIN  51  51 100 VRB6      30.16F                  
MARSHALL       CLOUDY    53  51  93 NE3       30.18F                  
ATHENS         RAIN      45  45 100 N12       30.18R WCI  39          
PALESTINE      RAIN      48  48  98 N9        30.18S                  
NACOGDOCHES      N/A     55  52  89 NE9       30.10F                  
LUFKIN         CLOUDY    58  54  86 NE8       30.08F                  
$$

SUPPLEMENTAL OBSERVATIONS (NWS FORT WORTH AREA)
  
CITY           SKY/WX    TMP DP  RH WIND       PRES   REMARKS
CADDO GRASSLND   N/A     43  41  93 N5G15       N/A                   
LBJ GRASSLAND    N/A     45  37  76 N8          N/A                   
POSSUM KINGDOM   N/A     45  37  76 N12         N/A  WCI  39          
GRANBURY         N/A     43  39  87 NW15        N/A  WCI  35          
MCGREGOR         N/A     43  39  87 N12G22      N/A  WCI  37          
TEMPLE           N/A     45  41  87 NW17G26     N/A  WCI  37          
PALESTINE        N/A     48  46  93 N10         N/A                   
$$

SUPPLEMENTAL OBSERVATIONS (NWS NORMAN AREA)
  
CITY           SKY/WX    TMP DP  RH WIND       PRES   REMARKS
GOODLETT         N/A     47  27  46 N16G22    30.36S WCI  40          
ODELL            N/A     50  30  47 NE15G21   30.38R                  
CROWELL          N/A     48  29  49 N18       30.37S                  
KNOX CITY        N/A     49  33  52 N18       30.35F                  
SEYMOUR          N/A     48  33  57 N16       30.36F                  
MILLERS CREEK    N/A     48  32  53 N12G20      N/A                   
$$

SUPPLEMENTAL OBSERVATIONS (NWS SAN ANGELO AREA)
  
CITY           SKY/WX    TMP DP  RH WIND       PRES   REMARKS
WEINERT          N/A     47  31  52 N17       30.35F                  
HASKELL          N/A     47  33  58 N17G24    30.34F                  
THROCKMORTON     N/A     47  34  59 N12       30.34S                  
STAMFORD         N/A     45  33  62 N17       30.34F WCI  38          
CLYDE            N/A     43  35  73 N14       30.29F WCI  36          
HAMBY            N/A     45  32  61 N14         N/A  WCI  38          
IVIE RESERVOIR   N/A     43  37  81 N13G22      N/A  WCI  36          
COLORADO BEND    N/A     39  36  87 N6G17       N/A  WCI  35          
$$

SUPPLEMENTAL OBSERVATIONS (NWS SHREVEPORT AREA)
  
CITY           SKY/WX    TMP DP  RH WIND       PRES   REMARKS
TEXARKANA        N/A     52  46  82 N9G17       N/A                   
LINDEN           N/A     52  48  87 NE2G10      N/A                   
LUFKIN           N/A     55  52  88 MISG        N/A                   
N SABINE NF      N/A     61  57  88 MISG        N/A                   
$$

SUPPLEMENTAL OBSERVATIONS ARE A COLLECTION OF AUTOMATED INSTRUMENTS
THAT ARE MAINTAINED BY A VARIETY OF FEDERAL AND STATE AGENCIES. 
CERTAIN ELEMENTS...SUCH AS HUMIDITY VALUES AND SUSTAINED WIND 
SPEEDS...MAY BE APPROXIMATED.